Regional Weather Roundup
Issued by NWS Green Bay, WI

Home | Current Version | Previous Version | Text Only | Print | Product List | Glossary On
Versions: 1 2 3 4 5 6 7 8 9 10 11 12 13 14 15 16 17 18 19 20 21 22 23 24 25 26 27 28 29 30 31 32 33 34 35 36 37 38 39 40 41 42 43 44 45 46 47 48 49 50
000
ASUS43 KGRB 271459
RWRGRB

NORTH-CENTRAL AND NORTHEAST WISCONSIN REGIONAL WEATHER ROUNDUP
NATIONAL WEATHER SERVICE GREEN BAY WI
900 AM CST TUE JAN 27 2015

WIZ005-009-010>012-018-019-271600-
NORTH CENTRAL WISCONSIN

CITY           SKY/WX    TMP DP  RH WIND       PRES   REMARKS
IRONWOOD       CLOUDY    21  19  93 S3        30.09S
MANITOWISH WTR NOT AVBL
ARBOR VITAE    NOT AVBL
EAGLE RIVER    NOT AVBL
LAND O LAKES   NOT AVBL
RHINELANDER    CLOUDY    20  18  92 E3        30.11R FOG
PHILLIPS       NOT AVBL
ANTIGO         NOT AVBL
TOMAHAWK       NOT AVBL
MERRILL        NOT AVBL
$$

WIZ013-073-271600-
NORTHEAST WISCONSIN

CITY           SKY/WX    TMP DP  RH WIND       PRES   REMARKS
IRON MOUNTAIN  CLOUDY    17  15  92 CALM      30.14R
MARINETTE      CLOUDY    21  19  93 NE7       30.18R
$$

WIZ017-030-035>037-045-271600-
CENTRAL WISCONSIN

CITY           SKY/WX    TMP DP  RH WIND       PRES   REMARKS
MEDFORD        NOT AVBL
WAUSAU         CLOUDY    22  20  92 E7        30.13R FOG
MOSINEE        LGT SNOW  21  21 100 E6        30.14R
MARSHFIELD     CLOUDY    23  20  88 NE5       30.14R FOG
WISC RAPIDS    CLOUDY    23  21  92 NE5       30.16R FOG
STEVENS POINT  NOT AVBL
WAUPACA        NOT AVBL
SHAWANO        NOT AVBL
CLINTONVILLE   NOT AVBL
$$

WIZ038-039-048-051-271600-
FOX VALLEY

CITY           SKY/WX    TMP DP  RH WIND       PRES   REMARKS
NWS GREEN BAY  CLOUDY    24  17  74 NE10      30.18R
APPLETON       CLOUDY    25  18  74 E6        30.15R
OSHKOSH        CLOUDY    24  18  77 NE6       30.15R
FOND DU LAC    CLOUDY    25  18  74 NE7       30.15R
$$

WIZ022-050-052-271600-
EAST CENTRAL WISCONSIN

CITY           SKY/WX    TMP DP  RH WIND       PRES   REMARKS
STURGEON BAY   CLOUDY    23  16  74 NE6       30.19R
MANITOWOC      NOT AVBL
SHEBOYGAN      SUNNY     26  15  63 NE13      30.15R
$$

LMZ563-521-522-541>543-271600-
LAKESHORE

STATION/POSITION TIME  TEMP    WIND        PRES    VSBY  WAVE
                       AIR SEA DIR/SP/G                  HT/PER
                 (UTC) (F)     (DEG/KT/KT) (MB)    (MI)  (FT/S)
SHEBOYGAN LKSHOR 1400   26      60/ 11/ 12 1021.7R
KEWAUNEE LKSHORE 1400   24      20/  5/ 10 1020.3R
NORTHPORT PIER   1400   24     340/  8/  9 1021.7R
SISTER BAY LKSHO 1400   23      30/  6/  7   N/A
CHAMBERS ISLAND  1400   20      10/  6/  7 1022.0R
MENOMINEE LKSHOR 1400   20      30/  6     1022.3R
$$


USA.gov is the U.S. government's official web portal to all federal, state and local government web resources and services.